E8376 Weather Reports


Display with metric or nautical units.
time (UTC)temp
F
wind
direction
speed
MPH
gust
MPH
rain 1hr
in
rain 24hr
in
rain mn
in
humidity
%
barometer
mb
20260502213425 71 113 3.0 8.0 0.00 0.22 0.04 47 1018.4
20260502212922 71 17 4.0 9.0 0.00 0.23 0.04 46 1018.4
20260502212421 71 345 4.0 11.0 0.00 0.25 0.04 45 1018.6
20260502211919 72 359 4.0 12.0 0.00 0.27 0.04 46 1018.5
20260502211417 72 351 4.0 12.0 0.00 0.29 0.04 45 1018.5
20260502210916 72 348 4.0 10.0 0.00 0.30 0.04 46 1018.3
20260502210417 72 337 4.0 10.0 0.00 0.31 0.04 46 1018.4
20260502205919 71 305 4.0 11.0 0.00 0.32 0.04 46 1018.7
20260502205418 72 2 4.0 11.0 0.00 0.33 0.04 47 1018.8
20260502204918 72 358 4.0 11.0 0.00 0.33 0.04 44 1018.5
20260502204418 72 19 3.0 11.0 0.00 0.34 0.04 47 1018.5
20260502203918 73 27 3.0 11.0 0.00 0.34 0.04 47 1018.5
20260502203418 73 19 3.0 11.0 0.00 0.34 0.04 46 1018.5
20260502202918 72 333 3.0 10.0 0.00 0.34 0.04 48 1018.7
20260502202418 72 15 3.0 10.0 0.00 0.34 0.04 48 1018.8
20260502202151 72 334 4.0 9.0 0.00 0.34 0.04 47 1018.6
20260502201418 72 17 4.0 9.0 0.00 0.34 0.04 46 1018.9
20260502200914 72 11 3.0 8.0 0.00 0.34 0.04 47 1018.9
20260502200411 72 8 3.0 8.0 0.00 0.34 0.04 47 1019.0
20260502200138 72 340 3.0 8.0 0.00 0.34 0.04 48 1019.2
20260502195411 73 29 2.0 7.0 0.00 0.34 0.04 49 1018.9
20260502194912 72 43 3.0 10.0 0.00 0.34 0.04 49 1018.9
20260502194412 73 5 3.0 10.0 0.00 0.34 0.04 47 1019.2
20260502193911 73 18 3.0 9.0 0.00 0.34 0.04 49 1019.0
20260502193411 73 50 3.0 9.0 0.00 0.34 0.04 46 1018.9
20260502192911 73 9 3.0 10.0 0.00 0.34 0.04 47 1018.8
20260502192411 72 16 4.0 10.0 0.00 0.35 0.04 47 1019.0
20260502191913 72 357 4.0 9.0 0.00 0.35 0.04 46 1018.9
20260502191413 72 42 3.0 9.0 0.00 0.35 0.04 47 1019.2
20260502190912 72 357 3.0 10.0 0.00 0.35 0.04 46 1018.9
20260502190414 71 358 3.0 10.0 0.00 0.35 0.04 47 1019.4
20260502185912 71 38 3.0 8.0 0.00 0.35 0.04 47 1019.4
20260502185412 71 298 3.0 8.0 0.00 0.35 0.04 48 1019.4
20260502184913 71 26 3.0 8.0 0.00 0.36 0.04 47 1019.1
20260502184629 71 16 3.0 9.0 0.00 0.37 0.04 48 1019.2
20260502183910 71 306 3.0 9.0 0.00 0.38 0.04 44 1019.4
20260502183410 71 11 3.0 8.0 0.00 0.38 0.04 46 1019.5
20260502182909 71 29 3.0 8.0 0.00 0.39 0.04 46 1019.5
20260502182409 71 28 3.0 8.0 0.00 0.39 0.04 46 1019.7
20260502181909 71 142 3.0 12.0 0.00 0.40 0.04 48 1019.3
20260502181409 70 17 4.0 12.0 0.00 0.41 0.04 46 1019.8
20260502180910 71 31 3.0 9.0 0.00 0.42 0.04 49 1019.7
20260502180410 71 17 3.0 13.0 0.00 0.43 0.04 48 1019.7
20260502163904 69 20 3.0 9.0 0.00 0.56 0.04 56 1020.1
20260502163403 68 146 3.0 9.0 0.00 0.56 0.04 54 1020.1
20260502162903 68 343 3.0 7.0 0.00 0.56 0.04 50 1020.6
20260502162403 68 29 4.0 12.0 0.00 0.56 0.04 50 1020.2
20260502161903 67 21 4.0 12.0 0.00 0.57 0.04 52 1020.4
20260502161402 68 26 3.0 9.0 0.00 0.57 0.04 53 1020.4
20260502160902 68 293 3.0 7.0 0.00 0.57 0.04 55 1020.2
20260502160359 68 148 3.0 9.0 0.00 0.57 0.04 55 1020.3
20260502151900 67 148 2.0 12.0 0.00 0.57 0.04 60 1020.2
20260502151359 66 226 2.0 12.0 0.00 0.57 0.04 61 1020.1
20260502150901 66 34 3.0 9.0 0.00 0.57 0.04 63 1020.2
20260502150356 66 39 2.0 9.0 0.00 0.57 0.04 64 1019.9
20260502130332 55 0 0.0 1.0 0.00 0.61 0.04 97 1018.8
20260502123318 54 0 0.0 2.0 0.00 0.61 0.04 98 1018.7
20260502122818 54 0 0.0 1.0 0.00 0.61 0.04 98 1018.6
20260502122316 53 0 0.0 0.0 0.00 0.61 0.04 98 1018.6
20260502122038 53 0 0.0 0.0 0.00 0.61 0.04 98 1018.7
20260502121318 53 0 0.0 1.0 0.00 0.61 0.04 98 1018.7
20260502120820 53 32 0.0 1.0 0.00 0.61 0.04 98 1018.6
20260502120318 53 0 0.0 0.0 0.00 0.61 0.04 98 1018.3
20260502115818 53 0 0.0 0.0 0.00 0.61 0.04 98 1018.3
20260502115318 53 0 0.0 1.0 0.00 0.61 0.04 98 1018.2
20260502114818 53 0 0.0 2.0 0.00 0.61 0.04 98 1018.0
20260502114318 53 273 0.0 2.0 0.00 0.61 0.04 98 1018.0
20260502113821 53 0 0.0 1.0 0.00 0.61 0.04 98 1018.1
20260502113305 53 0 0.0 1.0 0.00 0.61 0.04 98 1017.9
20260502112805 54 0 0.0 1.0 0.00 0.61 0.04 98 1017.9
20260502112306 54 0 0.0 1.0 0.00 0.61 0.04 98 1017.8
20260502111805 54 0 0.0 2.0 0.00 0.61 0.04 98 1017.7
20260502111305 54 0 0.0 2.0 0.00 0.61 0.04 98 1017.7
20260502110805 54 0 0.0 1.0 0.00 0.61 0.04 98 1017.6
20260502110753 54 219 0.0 1.0 0.00 0.61 0.04 98 1017.6
20260502105805 54 0 0.0 2.0 0.00 0.61 0.04 98 1017.4
20260502105306 54 163 0.0 2.0 0.00 0.61 0.04 98 1017.3
20260502104806 54 0 0.0 2.0 0.00 0.61 0.04 98 1017.4
20260502104303 54 0 0.0 2.0 0.00 0.61 0.04 98 1017.4
20260502103803 54 0 0.0 0.0 0.00 0.61 0.04 98 1017.4
20260502103525 55 0 0.0 0.0 0.00 0.61 0.04 98 1017.3
20260502102802 55 0 0.0 0.0 0.00 0.61 0.04 98 1017.1
20260502102306 55 0 0.0 1.0 0.00 0.61 0.04 98 1017.1
20260502101804 55 0 0.0 1.0 0.00 0.61 0.04 98 1017.0
20260502101250 55 0 0.0 1.0 0.00 0.61 0.04 98 1017.0
20260502100750 55 0 0.0 2.0 0.00 0.61 0.04 98 1017.0
20260502100250 55 0 1.0 2.0 0.00 0.61 0.04 98 1016.9
20260502090750 55 0 0.0 2.0 0.00 0.61 0.04 98 1016.5
20260502090514 55 0 0.0 1.0 0.00 0.61 0.04 98 1016.5
20260502071221 55 0 0.0 0.0 0.00 0.61 0.04 98 1016.4
20260502070723 55 0 0.0 2.0 0.00 0.61 0.04 98 1016.4
20260502070224 55 0 0.0 2.0 0.00 0.61 0.04 98 1016.3
20260502065724 55 0 0.0 2.0 0.00 0.61 0.04 98 1016.4
20260502065222 55 0 0.0 0.0 0.01 0.61 0.04 98 1016.9
20260502064722 55 0 0.0 0.0 0.01 0.61 0.04 98 1016.9
20260502064223 55 0 0.0 0.0 0.02 0.61 0.04 98 1017.1
20260502063723 55 0 0.0 0.0 0.03 0.61 0.04 98 1017.2
20260502063222 55 0 0.0 0.0 0.04 0.61 0.04 98 1017.4
20260502062723 55 0 0.0 0.0 0.04 0.61 0.04 98 1017.5
20260502062206 55 0 0.0 0.0 0.04 0.61 0.04 98 1017.5
20260502061939 55 0 0.0 0.0 0.04 0.61 0.04 98 1017.4
20260502061206 55 0 0.0 0.0 0.04 0.61 0.04 98 1017.3
20260502060706 55 0 0.0 1.0 0.04 0.61 0.04 98 1017.4
20260502060206 55 0 0.0 1.0 0.04 0.61 0.04 98 1017.4
20260502055707 55 0 0.0 0.0 0.04 0.61 0.04 98 1017.5
20260502055206 55 0 0.0 1.0 0.04 0.61 0.04 98 1017.6
20260502055153 55 320 0.0 1.0 0.04 0.61 0.04 98 1017.9
20260502054434 55 0 0.0 2.0 0.03 0.60 0.03 98 1018.1
20260502053712 55 0 0.0 2.0 0.02 0.59 0.02 98 1018.1
20260502053211 55 0 0.0 2.0 0.02 0.58 0.01 98 1018.0
20260502053158 55 0 0.0 2.0 0.02 0.58 0.00 98 1018.0
20260502052208 55 23 0.0 2.0 0.02 0.58 0.00 98 1018.0
20260502051709 55 0 0.0 0.0 0.02 0.57 0.00 98 1018.0
20260502051209 55 0 0.0 0.0 0.02 0.57 0.00 98 1017.9
20260502050658 55 0 0.0 0.0 0.02 0.57 0.00 98 1018.0
20260502050142 55 0 0.0 0.0 0.02 0.57 0.00 98 1017.9
20260502045908 55 0 0.0 0.0 0.02 0.57 0.57 98 1017.9
20260502045144 55 0 0.0 0.0 0.02 0.57 0.57 98 1017.8
20260502044643 55 0 0.0 0.0 0.02 0.57 0.57 98 1017.9
20260502044143 55 0 0.0 0.0 0.02 0.57 0.57 98 1018.1
20260502043643 55 0 0.0 0.0 0.02 0.57 0.57 98 1017.9
20260502043143 55 0 0.0 0.0 0.01 0.56 0.56 98 1017.8
20260502042643 55 0 0.0 0.0 0.01 0.56 0.56 98 1017.9
20260502042145 55 0 0.0 0.0 0.01 0.56 0.56 97 1018.0
20260502042134 55 0 0.0 0.0 0.01 0.56 0.56 97 1018.3
20260502041143 55 0 0.0 0.0 0.00 0.56 0.56 98 1018.2
20260502040643 55 0 0.0 1.0 0.00 0.56 0.56 97 1018.0
20260502040144 55 0 0.0 1.0 0.00 0.55 0.55 97 1017.8
20260502035643 55 0 0.0 0.0 0.00 0.55 0.55 97 1017.8
20260502035129 55 0 0.0 2.0 0.00 0.55 0.55 98 1017.7
20260502035105 55 0 0.0 2.0 0.00 0.56 0.55 97 1017.9
20260502034112 55 0 0.0 2.0 0.00 0.56 0.55 97 1018.2
20260502033614 55 0 0.0 1.0 0.00 0.56 0.55 97 1018.1
20260502033112 55 0 0.0 1.0 0.00 0.56 0.55 97 1017.8
20260502032612 54 0 0.0 0.0 0.01 0.56 0.55 97 1017.3
20260502032113 54 0 0.0 1.0 0.02 0.56 0.55 97 1017.0
20260502031612 54 0 0.0 1.0 0.02 0.56 0.55 97 1016.8
20260502031113 54 0 0.0 2.0 0.03 0.56 0.55 97 1016.5
20260502030613 54 0 0.0 2.0 0.03 0.56 0.55 97 1016.7
20260502030113 54 0 0.0 2.0 0.03 0.56 0.55 97 1016.2
20260502025613 54 0 0.0 2.0 0.04 0.56 0.55 97 1016.2
20260502025112 54 161 0.0 2.0 0.04 0.56 0.55 97 1016.2
20260502024833 54 0 0.0 2.0 0.05 0.56 0.55 97 1016.3
20260502024111 54 0 0.0 0.0 0.05 0.56 0.55 97 1016.4
20260502023612 54 0 0.0 1.0 0.05 0.56 0.55 97 1016.4
20260502023551 54 0 0.0 1.0 0.06 0.56 0.55 97 1016.4
20260502022558 54 0 0.0 0.0 0.05 0.55 0.54 97 1016.4
20260502022059 54 0 0.0 1.0 0.05 0.54 0.54 97 1016.3
20260502021558 54 0 0.0 1.0 0.05 0.54 0.53 97 1016.2
20260502021059 54 0 0.0 0.0 0.04 0.53 0.52 97 1016.2
20260502020558 54 0 0.0 0.0 0.04 0.53 0.52 97 1016.1
20260502020058 54 0 0.0 0.0 0.04 0.53 0.52 97 1016.1
20260502015559 54 0 0.0 1.0 0.04 0.52 0.52 97 1016.1
20260502015059 54 0 0.0 1.0 0.04 0.52 0.51 97 1016.2
20260502014559 54 147 0.0 1.0 0.03 0.51 0.50 97 1016.1
20260502014059 54 0 0.0 1.0 0.03 0.51 0.50 97 1016.2
20260502012805 54 0 0.0 1.0 0.03 0.52 0.49 97 1016.5
20260502012044 54 29 0.0 1.0 0.02 0.51 0.49 97 1016.5
20260502011526 54 0 0.0 1.0 0.02 0.51 0.48 97 1016.8
20260502011027 54 0 0.0 1.0 0.02 0.51 0.48 97 1016.5
20260502010527 54 205 0.0 1.0 0.02 0.51 0.48 97 1016.4
20260502010027 54 0 0.0 0.0 0.02 0.51 0.48 97 1016.4
20260502005757 54 0 0.0 1.0 0.02 0.50 0.47 97 1016.7
20260502005027 54 29 0.0 1.0 0.02 0.50 0.47 97 1016.9
20260502004526 54 0 0.0 1.0 0.02 0.50 0.47 96 1017.0
20260502004244 54 0 0.0 0.0 0.02 0.50 0.47 96 1017.0
20260502003526 54 0 0.0 0.0 0.03 0.50 0.47 96 1017.0
20260502003028 54 0 0.0 2.0 0.03 0.50 0.47 96 1016.9
20260502002750 54 0 0.0 2.0 0.03 0.50 0.46 96 1016.8
20260502002452 54 192 0.0 2.0 0.03 0.50 0.46 96 1016.7
20260502001734 54 0 0.0 1.0 0.03 0.50 0.46 96 1016.7
20260502001235 54 0 0.0 0.0 0.04 0.50 0.46 96 1016.7
20260502000511 54 0 0.0 1.0 0.03 0.50 0.46 96 1016.5
20260502000012 54 0 0.0 1.0 0.03 0.50 0.46 96 1016.4
20260501235458 54 0 0.0 1.0 0.03 0.51 0.45 96 1016.3
20260501234957 54 0 0.0 2.0 0.02 0.50 0.45 96 1016.1
20260501234458 54 0 0.0 2.0 0.03 0.50 0.45 96 1016.2
20260501233957 54 0 0.0 2.0 0.03 0.50 0.44 96 1016.1
20260501233458 54 0 0.0 1.0 0.02 0.50 0.44 96 1016.1
20260501232957 54 0 0.0 2.0 0.02 0.50 0.44 96 1016.2
20260501232458 55 0 0.0 2.0 0.02 0.49 0.44 96 1016.2
20260501231958 55 287 0.0 2.0 0.02 0.49 0.43 95 1016.1
20260501231458 55 0 0.0 1.0 0.01 0.48 0.43 95 1016.2
20260501230957 54 0 0.0 1.0 0.01 0.48 0.43 95 1016.2
20260501230500 54 72 0.0 1.0 0.01 0.48 0.43 94 1016.0
20260501225943 54 266 1.0 2.0 0.01 0.48 0.43 94 1015.7
20260501225443 54 349 1.0 2.0 0.01 0.48 0.43 94 1015.3
20260501224943 54 323 1.0 2.0 0.01 0.48 0.43 94 1014.8
20260501224443 54 0 2.0 6.0 0.01 0.48 0.42 94 1014.4
20260501223938 54 0 2.0 6.0 0.01 0.47 0.42 94 1014.0
20260501223529 54 45 2.0 6.0 0.02 0.47 0.42 95 1013.6
20260501222438 55 53 0.0 4.0 0.05 0.47 0.42 95 1013.1
20260501221933 55 0 1.0 4.0 0.07 0.47 0.42 95 1013.6
20260501221433 55 0 1.0 3.0 0.09 0.47 0.42 95 1013.8
20260501220933 55 0 1.0 4.0 0.10 0.47 0.42 95 1014.0
20260501220417 55 32 1.0 4.0 0.11 0.47 0.42 95 1014.0
20260501215917 55 0 1.0 4.0 0.12 0.47 0.42 95 1014.1
20260501215416 55 29 1.0 3.0 0.12 0.47 0.41 96 1014.3
20260501214917 55 263 0.0 2.0 0.13 0.47 0.41 96 1014.5
20260501214417 55 0 1.0 3.0 0.13 0.47 0.41 95 1015.0
20260501213904 56 52 0.0 3.0 0.13 0.46 0.41 96 1015.1